Theta_e
312 311 312 312 312 312 312 312 313 313 314 315 316 316 316 317 316 315 315 314 315 315 317 318 317 317 316 316 315 314 314 314 314 314 314 315 315 316 318 319 319 319 318 317 317 316 316 316 315 314 316 317 318 318 317 317 316 319 328 330 320 320 323 320 319 315 315 320 312 308 310 312 313 310 308 310 310 309 309 309 310 310 310 310 310 309 309 309
311 311 311 311 311 311 311 312 312 312 313 313 314 315 315 316 316 316 316 315 315 314 314 316 318 318 317 316 316 314 314 314 313 314 314 315 316 316 318 319 319 319 318 319 319 319 318 318 316 314 316 317 318 318 317 316 315 319 327 324 319 324 321 314 315 311 312 315 310 308 310 310 312 310 309 311 309 307 308 309 308 308 309 309 309 309 309 309
311 311 311 310 311 311 311 311 311 311 311 312 312 313 314 314 315 315 315 316 315 315 314 314 316 318 317 317 316 315 315 315 314 314 314 315 316 316 317 320 319 319 319 319 320 320 320 319 316 315 316 317 317 317 316 316 315 315 320 324 324 322 314 310 312 312 312 312 309 309 309 309 311 310 309 310 308 306 308 309 307 308 310 310 309 309 309 308
311 311 310 310 310 310 310 310 310 310 310 311 311 312 312 312 314 314 315 315 315 315 315 314 314 316 318 317 317 316 316 316 316 315 314 314 316 316 317 319 319 319 318 318 319 320 320 320 316 314 316 316 315 316 314 314 315 313 316 322 319 312 313 313 312 312 312 311 310 309 309 309 310 310 309 309 310 308 308 311 311 311 312 311 309 309 308 308
310 311 310 310 310 310 310 310 310 310 310 310 310 310 311 311 312 312 313 314 315 315 315 314 314 315 317 318 318 317 316 319 319 316 315 315 316 316 316 318 319 319 318 318 319 319 320 319 317 315 315 315 315 316 314 312 313 313 312 314 311 309 314 314 311 312 312 311 310 309 310 311 310 309 309 309 312 312 311 312 313 313 313 312 311 310 309 308
311 310 310 310 310 310 310 310 310 310 310 310 310 310 310 310 310 311 312 312 313 314 315 314 314 314 316 317 317 318 317 319 319 315 314 315 315 317 316 316 318 319 318 318 318 319 320 319 318 316 315 315 315 315 314 311 311 314 313 309 310 310 312 313 312 313 312 312 311 310 311 310 309 309 310 308 311 313 312 313 312 312 312 311 311 310 309 309
310 310 310 310 310 310 310 310 310 310 310 310 310 310 310 310 310 310 311 311 311 313 314 314 314 314 315 316 317 317 318 318 318 317 316 314 315 316 316 316 317 318 318 317 318 319 320 320 318 315 315 315 313 313 313 310 310 316 315 310 311 311 311 313 312 312 312 312 312 311 310 309 310 311 309 308 311 312 312 312 311 312 311 309 310 309 309 309
310 310 310 310 310 310 310 310 310 310 310 310 310 310 310 310 310 310 310 310 311 311 313 314 314 314 315 316 317 317 318 317 318 318 317 315 314 315 316 316 316 317 317 317 317 319 319 319 318 315 314 314 314 313 311 311 311 315 315 310 310 311 312 313 312 313 312 311 311 309 309 309 310 309 307 308 312 312 311 311 311 311 311 309 309 309 309 309
310 311 310 310 310 310 310 310 310 310 310 310 310 310 310 310 310 310 310 310 310 310 311 313 314 314 315 316 316 317 317 316 317 318 317 315 314 314 315 316 316 316 316 317 317 318 319 318 317 316 315 314 313 312 310 312 313 312 313 311 310 311 312 312 312 313 311 311 310 308 309 308 308 308 308 310 311 311 311 311 311 310 310 310 309 309 308 308
310 311 310 310 310 310 310 310 310 310 310 310 310 310 310 310 310 310 310 310 310 310 310 312 313 314 315 315 316 316 315 315 317 318 317 315 314 314 315 315 316 316 316 317 317 317 319 318 317 316 315 314 313 311 310 312 313 311 310 311 310 310 311 311 311 311 311 310 309 309 310 308 307 307 309 311 311 310 310 310 310 310 309 310 309 309 308 308
311 311 311 310 310 310 310 310 310 310 310 310 310 310 310 310 310 310 310 310 310 310 310 311 313 314 314 315 316 316 314 315 316 318 318 317 315 314 314 315 315 316 316 316 316 317 318 318 317 315 315 315 313 311 310 311 312 310 309 311 309 308 309 308 309 309 309 310 309 308 308 307 306 307 310 310 310 310 310 310 309 309 309 309 309 308 308 307
311 311 311 311 311 311 311 311 311 311 311 311 310 310 310 310 310 310 311 310 310 310 310 311 313 314 315 315 315 315 314 315 316 316 318 318 318 316 314 314 315 315 316 316 316 317 318 319 317 316 316 315 313 311 311 311 310 309 310 313 313 313 312 308 307 308 307 310 309 307 309 310 308 309 311 309 309 309 309 309 309 309 309 308 308 308 307 307
311 311 311 311 311 311 311 311 311 311 312 312 311 310 310 310 310 311 311 311 310 310 310 312 313 314 314 315 315 315 315 315 316 316 317 318 317 316 315 314 315 315 315 315 316 316 317 318 317 316 315 313 312 312 311 309 308 310 309 312 318 321 319 308 305 307 306 309 308 308 314 316 312 309 310 309 308 309 308 308 308 308 308 308 308 307 307 306
311 311 311 311 311 311 311 311 311 312 312 312 312 312 311 311 311 311 310 311 310 310 311 312 313 314 314 315 314 315 315 315 316 316 317 317 316 315 314 314 315 315 315 315 315 315 316 318 317 316 314 313 311 310 313 312 311 313 310 314 320 318 322 313 305 307 308 309 307 309 315 317 315 312 310 310 308 308 307 308 308 307 308 307 307 307 307 306
311 311 311 311 311 311 312 312 312 312 312 312 312 312 311 312 312 311 311 311 311 311 312 312 313 314 314 314 314 315 315 315 316 317 317 317 316 314 314 314 314 314 315 314 315 315 316 316 315 315 313 312 312 314 321 321 320 319 312 321 323 316 324 320 305 305 310 310 306 309 315 315 314 312 310 310 308 307 307 308 308 307 307 307 307 307 306 307
311 311 311 311 311 311 312 312 312 312 312 312 312 312 311 311 312 311 311 311 311 311 311 312 312 314 315 315 315 315 315 316 316 316 316 316 316 314 313 313 313 314 314 314 314 315 315 316 314 313 312 311 315 324 328 326 328 325 316 320 328 319 320 320 309 303 306 309 307 309 314 316 314 309 307 308 307 306 305 306 307 307 307 307 306 306 306 306
311 311 311 311 311 311 312 311 312 312 312 312 311 312 311 311 311 311 311 311 311 311 311 312 313 315 317 316 315 316 316 316 316 316 316 316 315 314 313 313 313 314 314 314 314 314 314 315 313 313 312 311 316 325 324 323 330 329 319 319 325 320 315 318 317 306 302 307 310 309 310 312 313 310 307 308 307 305 303 304 306 307 307 306 306 305 305 306
311 311 311 311 311 311 311 311 311 311 311 311 311 311 311 310 311 311 311 311 311 312 312 314 315 316 316 315 315 317 317 316 316 316 315 315 315 314 313 313 314 314 314 313 313 315 315 313 314 318 319 314 317 323 321 323 326 324 322 321 321 319 315 316 318 310 305 309 310 310 310 309 310 310 307 307 307 305 304 304 306 306 307 306 304 304 304 305
312 312 312 312 312 311 311 311 311 311 311 311 310 310 310 310 310 310 311 312 313 315 316 315 315 315 314 313 314 315 314 315 315 315 315 315 315 314 314 313 314 314 313 315 315 314 313 313 316 320 322 318 318 320 321 327 327 322 322 323 321 319 317 316 316 308 304 309 310 308 309 309 309 309 308 307 306 305 305 304 304 304 304 303 302 303 304 304
312 313 313 313 313 312 312 311 311 311 310 311 310 310 310 309 311 312 311 311 313 314 314 314 314 314 314 313 313 313 314 314 315 315 315 315 315 314 315 314 314 313 313 319 321 313 311 318 320 320 322 323 323 320 319 323 323 319 318 319 318 316 315 314 314 308 302 307 312 309 308 308 307 308 307 306 305 303 302 301 301 303 303 302 302 303 304 305
310 310 311 312 313 313 313 312 311 311 310 310 309 309 309 308 311 313 311 311 312 312 312 313 313 313 313 313 312 312 313 314 314 315 315 315 315 314 314 313 314 316 314 314 316 311 312 319 320 321 320 320 322 316 313 315 314 314 316 316 315 315 315 312 310 308 304 306 311 310 309 308 307 307 306 306 305 304 303 302 301 302 302 302 302 303 304 305
308 308 309 309 310 311 312 312 312 311 310 309 309 308 308 309 311 311 310 312 312 310 311 311 311 312 311 311 311 311 313 314 313 314 314 314 315 315 314 314 316 319 314 310 314 315 316 320 320 317 310 310 312 309 311 315 314 315 316 315 316 314 315 313 309 307 306 307 311 311 309 308 308 307 307 307 307 307 307 306 304 304 303 302 303 304 303 303
309 308 308 307 308 308 309 310 311 311 311 310 309 308 309 309 310 311 312 313 313 311 311 311 311 311 311 311 311 311 312 314 313 313 313 313 314 314 312 313 317 319 315 315 319 318 320 323 316 307 304 311 313 308 311 314 314 316 315 316 319 315 315 316 312 308 307 307 309 311 308 307 308 308 308 308 307 308 308 307 307 306 305 304 305 305 304 303
311 310 309 309 308 307 306 307 309 311 310 309 309 308 309 310 311 312 312 312 313 312 311 312 312 311 312 311 311 312 312 312 313 313 313 313 313 313 311 312 316 318 315 317 320 318 322 319 305 301 307 317 317 310 311 312 315 318 316 316 318 316 316 316 314 310 310 309 307 309 311 312 312 310 309 308 305 305 305 305 306 305 305 305 305 306 305 305
312 311 310 310 310 308 306 307 308 310 310 310 309 309 310 311 312 314 312 311 313 313 311 312 312 312 312 312 313 312 312 313 312 313 313 313 313 312 311 310 313 317 317 318 318 318 319 310 303 307 310 314 318 315 314 314 317 320 319 316 315 317 316 313 312 311 315 316 308 309 314 315 316 314 312 310 309 310 307 305 305 304 304 305 304 306 306 305
313 312 311 310 310 309 307 307 309 310 310 310 310 310 311 312 314 315 312 310 313 313 312 312 314 315 313 313 313 311 314 315 312 313 313 312 313 312 312 311 310 315 317 316 316 318 316 305 305 315 314 313 316 316 316 314 315 319 318 315 312 312 312 311 312 312 319 319 309 309 316 315 315 316 318 317 317 317 313 311 309 305 304 304 305 307 307 307
314 312 311 311 310 309 308 308 310 311 311 311 312 311 311 312 313 312 309 308 311 314 315 314 314 316 314 313 313 313 318 317 311 311 312 312 312 310 314 314 310 312 310 311 316 317 313 307 308 313 314 314 314 315 316 312 316 320 313 312 314 312 312 313 312 312 314 312 308 311 313 313 313 313 316 316 315 315 313 313 312 308 306 306 307 308 308 309
315 312 310 310 309 309 308 308 310 311 311 313 312 311 312 312 311 310 308 307 310 314 317 315 313 314 314 313 312 312 314 313 312 312 310 311 311 310 313 314 314 315 308 311 321 315 310 314 313 312 313 314 314 317 313 311 317 318 308 308 312 312 314 314 311 311 310 308 312 313 309 310 314 313 312 311 311 313 312 312 312 310 308 307 308 311 311 311
315 313 310 309 308 308 307 307 310 310 312 313 312 311 312 311 310 309 308 307 311 317 316 314 314 313 313 313 312 310 310 310 311 311 308 309 311 309 311 310 310 313 307 309 321 316 309 311 310 312 317 316 315 311 306 311 315 308 303 307 309 308 310 310 310 311 310 310 314 314 309 311 315 315 313 309 310 314 314 312 311 309 307 308 311 313 313 312
314 313 310 308 307 307 307 308 309 309 311 312 312 311 311 310 310 309 308 308 312 315 312 312 314 313 312 314 314 311 310 310 308 308 307 308 309 308 310 309 307 313 314 311 317 314 306 304 304 310 313 311 310 304 300 307 308 302 306 313 313 310 306 307 310 310 312 316 317 313 310 311 315 315 314 312 314 319 318 314 312 310 307 309 313 313 313 312
313 313 311 308 308 308 309 309 310 310 310 312 312 310 310 312 313 311 308 308 310 312 313 314 313 313 315 318 319 314 310 310 307 307 309 308 309 308 309 311 310 316 320 316 317 313 306 306 308 308 306 304 308 307 301 301 301 304 314 317 317 315 311 312 313 312 315 320 317 310 307 309 313 314 312 313 313 316 318 318 321 317 309 310 314 313 312 312
313 313 311 309 308 309 310 310 310 311 310 311 311 309 311 313 312 310 307 306 310 314 318 319 314 314 316 317 319 315 312 313 308 307 311 310 310 311 311 315 316 317 321 319 319 318 313 312 309 306 304 305 313 314 306 302 303 308 316 318 319 318 318 320 318 315 318 319 312 306 306 308 310 312 311 311 312 313 311 313 317 315 310 313 314 312 311 311
313 313 312 310 309 309 311 310 310 311 311 311 309 310 314 313 309 309 308 308 311 312 316 320 316 315 316 317 320 315 313 317 311 306 310 310 310 311 311 315 316 316 319 317 316 318 319 313 307 308 308 306 312 316 313 311 308 308 314 319 320 320 323 327 322 314 315 316 310 304 307 310 310 311 311 310 311 312 308 306 308 310 312 314 312 310 311 310
312 312 312 311 310 310 310 309 310 311 311 310 308 311 314 312 309 310 311 309 310 313 315 317 315 314 315 317 320 316 314 317 313 308 310 310 311 313 313 313 312 316 319 316 315 318 319 316 312 313 312 308 310 312 315 315 308 307 313 314 316 323 326 328 325 317 315 319 312 305 309 314 312 313 315 311 307 307 307 306 307 309 312 312 310 310 310 310
312 312 312 311 310 310 309 308 310 311 310 308 309 312 311 310 311 313 312 310 311 315 315 314 314 315 316 317 318 316 314 316 314 311 312 312 313 315 315 312 310 316 320 317 317 317 315 317 314 307 306 306 308 307 307 311 310 308 310 312 315 319 318 317 318 315 314 318 314 309 311 314 311 311 313 312 309 307 307 305 305 308 310 309 307 309 310 311
313 313 313 311 310 309 309 308 310 311 309 307 310 312 309 310 315 315 312 310 313 317 316 314 316 316 317 319 320 316 312 313 313 313 313 312 313 315 316 314 310 312 315 316 319 318 315 318 310 302 304 303 303 304 304 309 312 308 308 313 313 311 313 316 315 309 309 314 316 314 314 312 310 311 311 310 311 311 308 305 304 305 307 306 305 308 311 311
314 314 314 312 310 309 309 310 310 311 310 307 309 312 310 310 313 313 312 309 311 317 316 313 314 317 320 320 320 318 313 312 312 313 316 314 313 315 315 315 311 309 312 315 318 319 317 317 309 305 309 303 297 300 302 303 306 311 314 313 309 308 311 317 317 315 314 315 316 317 314 311 312 312 310 309 311 311 309 308 306 303 302 302 304 308 311 311
315 314 314 313 311 309 309 310 310 311 309 307 309 312 312 310 307 307 310 309 310 315 316 312 311 315 320 319 318 317 314 315 314 314 318 316 314 315 314 315 312 308 310 311 316 318 316 315 313 305 307 304 298 302 307 302 301 307 310 306 307 313 314 314 315 317 317 316 318 319 314 312 313 313 312 312 314 313 310 308 307 305 303 301 303 308 311 311
315 314 313 314 313 310 308 309 310 311 309 307 308 311 312 311 307 305 309 310 311 314 313 312 310 311 315 317 319 317 313 314 315 313 315 316 315 314 312 314 314 309 307 309 314 317 314 314 316 306 302 304 303 306 312 309 301 301 303 302 306 312 315 315 313 315 317 316 316 316 313 313 314 316 317 314 313 313 312 311 309 306 303 301 304 309 311 311
315 314 313 313 314 310 307 309 311 311 309 308 309 309 308 309 308 307 308 308 310 312 311 313 312 309 313 315 317 319 315 313 314 313 314 315 315 314 311 313 317 312 307 308 312 314 313 314 315 309 301 305 308 308 311 311 306 304 305 306 306 306 310 312 311 312 316 316 315 314 312 313 313 315 319 316 313 312 311 314 315 307 302 304 308 311 311 311
315 314 312 313 313 310 308 310 311 311 311 310 309 309 308 308 308 308 308 307 308 309 310 315 315 310 311 313 314 317 316 314 314 312 314 315 314 314 311 311 314 312 309 310 312 313 315 316 315 313 309 309 310 308 306 309 309 307 307 308 307 306 309 311 311 311 311 313 316 316 312 312 313 316 318 316 317 315 310 313 315 307 304 309 311 311 311 310
315 313 313 312 312 310 309 312 312 311 311 311 310 309 308 307 307 308 308 307 308 307 308 312 315 312 311 312 313 315 316 317 315 312 313 315 313 312 312 308 308 309 311 314 312 311 316 318 315 314 315 312 307 302 300 304 308 308 308 308 307 307 308 311 312 312 310 310 311 312 312 312 313 318 319 319 319 314 306 307 310 306 306 311 311 310 310 310
314 313 312 311 311 310 310 312 312 311 311 311 310 310 309 307 307 307 308 307 307 308 308 310 311 310 310 311 313 314 314 316 316 313 314 317 315 311 309 307 307 310 313 315 313 310 312 316 314 313 315 312 305 300 300 303 306 309 310 307 307 307 307 311 311 310 312 311 310 311 312 311 311 315 318 318 313 306 301 302 305 304 306 309 309 309 310 309
314 313 311 310 310 310 311 313 313 312 311 311 311 311 310 309 308 308 308 307 308 310 310 309 309 309 310 311 311 312 311 311 313 313 314 318 316 309 306 307 309 312 313 313 313 312 312 316 315 313 316 315 310 307 306 306 306 309 311 308 306 307 307 309 309 308 310 311 310 312 312 310 311 312 313 313 309 307 304 302 302 303 304 307 308 309 309 308
314 312 310 309 310 310 311 312 313 312 312 311 311 311 311 310 310 309 308 306 306 308 309 309 309 308 310 311 310 310 310 310 310 311 313 316 312 305 304 307 309 311 311 310 310 311 314 316 314 313 314 314 313 311 312 311 307 306 309 308 306 307 307 308 309 308 309 309 309 310 311 310 310 311 311 310 309 309 305 300 299 301 302 305 307 308 308 307
313 312 310 308 309 310 310 311 311 311 311 311 311 311 311 311 310 309 309 308 306 306 307 308 308 308 309 311 309 309 310 309 309 311 313 317 314 306 302 305 308 308 308 308 308 311 317 317 313 313 314 312 311 311 313 315 312 309 310 309 307 306 306 307 309 309 309 309 309 310 310 310 310 309 310 309 309 309 307 303 301 301 302 304 305 306 306 305
313 313 310 307 309 310 310 311 311 310 310 311 312 312 312 311 311 309 310 310 309 307 306 308 308 309 310 310 309 309 309 309 309 309 310 313 314 308 302 302 304 305 305 307 307 311 316 315 311 312 312 311 311 311 312 313 313 312 311 309 307 306 306 307 309 309 310 311 310 309 309 310 310 309 309 309 309 309 309 308 306 305 306 306 306 305 304 304
313 313 311 310 311 311 309 311 311 311 310 310 310 312 312 311 311 310 310 309 308 307 308 309 309 309 309 309 309 309 308 309 309 309 309 309 310 309 307 305 303 303 305 306 305 309 314 313 311 312 312 311 311 310 311 311 310 310 311 310 309 307 306 307 307 307 309 310 310 309 310 310 309 308 309 309 309 308 308 308 307 307 307 307 306 305 303 303
313 313 313 311 312 312 310 310 310 310 311 310 310 311 311 311 311 311 310 310 309 308 308 310 310 308 308 309 309 308 308 309 309 309 309 309 309 310 310 309 305 301 304 308 307 307 310 311 311 311 310 310 310 310 309 309 308 308 309 309 309 307 306 306 307 307 307 308 309 309 309 309 308 309 309 308 308 308 307 307 307 307 307 307 306 304 302 303
314 313 313 312 312 312 310 309 310 310 311 310 310 311 310 310 311 310 310 310 310 309 308 309 310 309 309 309 308 307 308 308 309 310 310 310 310 310 310 312 311 304 303 307 309 306 307 310 312 311 311 311 310 310 310 309 308 308 308 308 308 307 306 306 306 306 306 307 307 307 307 308 307 308 308 308 307 307 307 307 307 307 307 307 306 305 304 303
314 314 314 313 312 311 311 311 310 310 310 310 310 311 311 310 310 310 310 309 310 310 309 308 309 309 309 309 308 308 308 308 309 309 309 310 311 310 310 312 313 311 307 307 308 308 307 310 311 311 311 311 310 311 311 310 308 308 308 309 309 308 308 307 307 307 307 307 307 307 307 307 307 307 307 307 307 307 307 307 306 306 307 306 306 306 306 305
312 313 314 314 313 312 311 311 311 310 310 310 310 310 311 311 310 310 311 310 308 309 309 309 309 309 309 309 309 308 308 308 308 307 307 308 308 308 309 309 309 312 312 308 307 308 308 309 310 311 310 310 311 311 311 311 310 309 309 309 309 309 309 309 308 308 308 308 308 308 308 308 308 308 308 308 308 308 308 307 306 307 307 306 306 306 306 306
Wind_Speed
9 9 9 9 9 9 9 9 9 9 9 9 9 10 10 10 10 10 11 10 10 8 8 7 5 2 1 1 3 4 4 4 3 3 2 2 3 4 6 7 8 8 9 8 8 6 4 5 4 2 1 4 3 3 4 4 2 1 2 3 1 3 3 5 7 7 4 1 4 11 16 9 4 10 10 6 7 8 12 18 18 20 26 22 15 10 10 22
9 9 9 9 9 9 10 10 10 10 10 10 10 10 10 10 9 9 9 10 10 9 8 7 6 4 3 2 3 3 3 3 3 4 3 2 2 3 4 6 6 7 7 7 8 7 6 5 2 1 3 5 3 3 4 3 3 2 3 2 2 5 4 6 8 8 4 1 5 11 13 10 5 11 13 5 6 9 8 14 18 19 25 26 21 16 14 23
9 9 9 9 9 9 9 10 10 10 11 11 12 11 11 11 11 10 9 9 10 10 9 7 6 5 3 3 4 5 4 5 6 6 5 4 2 3 4 4 4 5 6 7 7 8 8 7 3 4 5 5 4 4 4 3 1 1 3 2 4 6 3 6 8 8 7 3 3 10 11 9 6 11 14 6 5 7 9 15 18 22 27 27 25 21 19 25
10 9 9 9 9 9 9 10 10 10 11 12 12 13 13 13 13 12 11 10 10 10 9 7 5 5 4 3 4 6 6 7 8 9 8 5 3 3 3 3 3 4 5 6 7 8 10 8 4 5 6 5 3 4 3 5 1 0 3 3 4 3 1 5 7 7 9 5 3 9 7 7 8 12 14 9 4 4 15 25 25 26 29 28 27 24 23 27
10 10 10 9 9 9 9 9 10 10 10 11 12 13 13 13 14 14 13 12 11 10 10 8 6 5 5 3 3 5 4 4 5 10 9 6 4 3 3 3 1 2 4 5 6 8 10 8 4 5 5 4 3 3 1 4 3 1 1 4 3 4 1 2 4 6 9 6 4 7 5 6 9 12 18 16 8 10 20 26 27 28 28 26 26 26 27 30
11 11 10 10 10 10 10 10 10 10 10 11 12 13 14 13 14 14 14 13 12 11 10 9 7 5 4 4 4 4 4 2 4 8 9 7 5 4 4 3 2 0 3 4 6 7 9 8 4 3 4 3 2 3 1 2 2 1 2 4 4 6 3 2 4 6 8 7 6 7 6 8 9 9 18 23 22 24 22 19 18 22 26 25 24 26 29 32
12 12 11 11 11 10 10 10 11 11 11 11 11 12 13 14 13 14 14 14 13 12 11 10 9 6 4 4 4 6 9 9 7 8 9 9 7 5 4 4 4 2 2 3 5 6 7 8 5 5 5 3 2 3 2 1 3 2 1 4 4 7 6 5 5 7 8 8 8 7 6 9 11 7 9 22 33 32 26 20 14 15 21 24 25 28 30 31
13 13 13 12 12 12 11 11 11 11 11 11 11 12 13 14 14 14 14 14 14 13 12 11 10 7 5 5 5 7 11 11 8 9 11 11 9 7 5 5 5 4 2 3 4 5 7 7 5 4 3 3 4 4 1 1 2 3 1 4 5 6 8 7 8 10 9 9 9 7 8 11 13 8 8 25 35 29 28 27 21 17 17 23 28 30 31 32
14 14 14 13 13 13 12 12 12 12 12 12 12 12 13 15 15 15 15 15 14 13 13 12 11 8 6 6 5 6 8 6 6 9 10 11 11 9 7 6 5 5 4 3 3 4 6 5 4 2 3 4 5 3 2 1 1 2 3 4 5 5 7 8 10 12 11 11 8 6 10 12 11 7 14 31 34 27 28 27 27 24 20 23 28 31 33 34
15 15 14 14 14 14 14 13 13 13 13 13 12 12 13 15 16 16 16 16 15 14 14 12 11 8 7 6 4 3 5 4 5 8 10 11 11 11 9 7 6 6 5 4 3 3 4 4 4 3 5 6 5 3 2 2 1 2 3 4 6 7 8 8 11 12 11 11 10 8 8 10 6 2 11 22 18 19 25 25 26 26 25 26 28 32 34 35
16 15 15 15 15 15 15 14 14 14 14 14 13 13 14 15 16 17 17 17 16 16 15 13 10 9 8 7 6 6 7 6 5 6 9 11 11 11 11 9 8 7 7 4 3 3 3 3 2 2 3 3 3 3 2 2 1 1 1 4 5 5 7 8 9 11 8 7 11 10 5 6 2 3 17 22 11 12 18 22 25 25 26 27 29 33 35 37
18 17 16 16 15 16 16 16 16 15 15 15 15 15 15 16 16 17 18 17 18 18 15 12 9 9 9 10 12 10 9 9 8 8 8 10 11 12 11 11 9 8 7 5 4 4 2 2 2 1 1 3 3 3 2 1 1 0 1 2 5 5 3 5 5 6 6 3 6 5 4 6 6 13 27 23 14 15 16 20 24 25 27 27 30 34 36 38
19 19 18 17 17 17 17 17 17 17 16 16 16 16 17 17 18 18 18 18 20 19 15 11 9 9 10 11 12 10 9 9 10 9 9 9 10 11 12 11 10 8 8 6 5 4 3 2 2 1 2 3 3 3 2 2 2 1 2 1 3 6 4 3 0 2 5 4 5 6 4 7 9 23 30 20 16 16 17 22 24 26 28 28 32 35 37 39
21 20 20 19 19 18 18 17 18 18 17 17 17 17 18 18 18 19 19 20 21 18 14 11 10 10 10 10 11 11 11 11 10 10 10 10 10 10 11 11 10 8 7 6 5 5 4 2 2 2 2 2 3 4 1 3 3 0 1 2 2 2 4 4 0 4 3 3 8 7 4 9 8 15 21 19 20 18 19 23 24 27 29 30 34 36 39 40
22 21 21 21 20 20 20 19 19 19 18 18 18 18 18 19 19 19 19 20 20 16 14 13 11 10 11 12 12 11 11 11 11 11 10 11 10 11 11 10 10 8 7 6 5 5 4 2 2 2 2 2 3 3 2 4 3 2 1 3 2 0 4 7 3 7 5 2 7 7 2 10 11 10 12 16 18 19 22 24 25 28 30 32 35 37 40 41
23 22 22 22 21 21 21 20 20 20 20 19 19 19 19 20 20 19 20 20 18 17 15 14 12 9 8 10 9 8 9 10 10 10 11 11 11 11 11 10 9 8 7 6 6 5 4 2 2 2 2 2 3 3 3 4 4 4 1 3 3 2 3 6 3 6 6 1 4 6 3 7 8 5 7 12 16 19 22 24 26 29 31 34 37 38 41 41
25 24 24 23 22 22 22 21 21 21 21 20 20 20 19 20 20 20 19 17 17 18 16 13 11 8 8 10 9 8 9 9 10 11 11 11 11 11 11 10 8 7 6 6 5 5 4 1 3 2 1 2 2 4 2 3 4 3 1 2 4 3 3 4 4 2 3 3 4 5 4 11 13 9 8 11 15 19 23 27 28 30 33 35 37 39 41 43
27 26 26 24 24 23 22 22 22 22 22 21 21 21 20 21 21 20 18 16 17 15 13 11 7 3 7 9 7 7 8 8 10 11 12 12 12 12 11 9 8 7 5 4 5 5 4 1 3 0 2 2 2 5 1 4 4 3 3 3 4 3 3 5 5 2 2 2 5 4 6 15 17 18 19 17 16 21 27 30 30 32 34 35 36 39 41 44
29 29 28 27 26 25 24 23 23 23 23 22 21 22 22 21 19 17 15 14 12 7 5 8 8 3 5 8 9 11 12 11 10 11 13 12 12 12 11 9 8 7 3 2 3 4 2 1 2 1 1 3 4 6 7 8 7 6 5 4 4 5 5 6 6 4 1 2 7 8 10 15 16 18 21 19 17 24 32 30 29 31 33 34 35 39 42 45
30 31 31 30 29 28 25 24 25 24 24 23 22 21 18 13 10 10 11 12 12 11 12 12 12 13 14 16 18 17 15 15 14 12 12 12 12 11 9 9 7 5 3 3 2 2 3 1 4 7 7 8 9 8 6 4 6 5 4 4 5 5 7 6 4 4 1 2 9 9 9 13 17 17 20 22 16 20 29 26 26 32 33 33 35 39 43 45
28 30 32 32 31 30 27 26 26 25 24 23 21 18 13 8 6 7 10 14 16 17 20 21 20 22 23 23 22 19 15 14 14 14 13 13 12 8 7 6 4 3 3 3 4 2 4 4 9 10 9 7 6 6 6 5 5 4 5 4 4 4 7 7 2 4 1 2 6 6 6 13 17 15 18 20 13 19 29 23 26 33 33 33 34 39 43 43
25 27 29 31 32 31 28 27 26 25 23 21 19 15 11 10 10 11 11 12 18 20 20 23 25 27 28 27 26 23 16 12 13 16 15 14 14 10 7 5 4 3 1 3 4 1 1 7 12 8 7 6 4 5 7 6 5 3 3 2 4 4 5 6 3 4 1 2 5 6 7 14 18 17 18 20 20 27 33 25 29 34 31 32 36 40 41 39
23 24 25 28 29 28 26 26 26 25 22 19 16 12 10 11 10 12 10 8 15 20 19 21 23 26 27 27 27 24 19 14 13 17 18 17 16 12 9 7 4 3 1 4 6 3 3 8 8 6 10 8 5 4 6 5 3 3 4 3 5 3 1 4 3 3 1 2 4 6 9 13 16 16 17 22 26 31 34 28 31 34 32 35 38 39 39 38
24 24 25 26 25 22 21 23 24 22 21 17 14 13 11 10 9 10 10 6 8 13 15 18 19 23 25 22 21 20 20 18 13 12 17 20 16 11 9 8 5 3 4 7 9 7 7 7 4 8 7 7 6 3 5 5 2 3 5 6 6 4 5 6 3 3 2 1 2 6 10 9 7 10 12 10 11 19 25 25 29 34 33 34 35 36 38 39
25 24 26 26 24 19 17 19 19 19 18 14 12 11 8 7 7 8 8 4 4 7 10 13 14 18 20 17 16 15 13 15 16 12 13 19 19 10 5 8 6 5 7 7 8 7 9 5 9 8 3 5 7 4 6 8 3 4 6 11 10 7 7 4 2 4 3 3 2 4 8 7 1 4 9 5 2 8 11 13 21 28 28 30 33 35 38 38
24 23 25 26 24 20 15 12 13 14 12 11 10 8 6 5 5 8 6 2 4 5 4 7 8 8 11 11 12 11 4 7 14 15 13 16 20 12 5 6 4 4 6 7 5 4 4 2 6 6 5 5 5 5 6 8 5 2 4 7 8 6 4 2 1 2 0 2 3 3 2 8 3 2 8 5 4 9 8 9 18 23 22 26 32 34 35 36
23 22 23 24 22 20 13 9 11 9 7 7 8 7 5 4 1 5 5 3 5 5 6 6 7 7 8 9 14 12 2 3 7 12 16 16 18 14 6 4 2 2 5 5 2 3 2 4 3 5 6 5 5 6 6 9 7 3 3 4 6 6 5 4 3 1 3 2 3 1 2 8 8 7 9 8 7 11 12 13 19 22 22 25 30 32 32 33
22 20 21 21 19 17 12 10 11 8 7 6 5 7 6 3 2 3 3 4 5 4 5 5 6 8 8 11 17 10 1 4 5 7 16 16 16 11 6 7 6 4 4 5 4 4 3 6 6 7 5 4 6 5 8 12 5 4 3 6 6 6 5 4 4 2 1 3 4 4 4 5 10 6 3 3 6 11 14 15 17 21 21 23 27 29 27 27
21 18 17 18 17 14 11 11 10 9 9 8 6 7 6 5 3 4 2 5 3 3 3 5 7 6 7 11 13 9 1 2 1 6 12 12 14 7 2 6 6 4 2 2 5 4 2 4 6 8 6 6 5 1 4 8 4 4 6 6 6 5 5 4 3 2 2 2 7 7 7 4 10 4 4 2 4 9 12 12 14 18 20 22 24 22 20 21
20 17 15 15 14 11 9 9 11 11 10 10 9 8 8 7 4 2 5 6 2 1 4 6 6 6 8 7 5 7 3 1 2 8 8 6 10 5 2 4 4 4 0 4 3 4 1 2 1 4 5 5 6 4 3 2 5 8 7 5 6 5 4 3 1 3 1 5 8 8 12 9 8 3 6 4 5 9 9 8 11 13 17 23 22 18 16 17
20 17 14 13 11 9 8 7 10 12 12 12 10 11 9 4 4 4 8 4 1 1 3 3 3 5 9 6 3 4 3 1 4 9 5 3 5 3 3 4 2 3 2 5 4 4 1 2 2 3 6 8 8 5 5 4 5 6 4 3 3 3 3 4 4 3 1 7 5 4 8 9 9 6 4 5 6 7 9 8 10 10 15 23 21 16 14 14
19 17 15 13 11 9 8 8 10 13 15 14 13 13 8 1 3 5 4 1 1 4 4 3 2 4 6 2 1 4 3 2 5 7 5 3 4 5 4 5 5 2 3 5 4 4 2 4 2 2 5 8 7 5 3 3 2 3 4 5 3 3 3 3 3 1 3 8 3 3 4 4 13 11 6 8 10 10 10 11 12 10 15 22 19 13 13 13
18 16 15 14 12 9 8 9 10 13 15 16 16 11 8 2 7 5 4 3 3 3 2 2 1 2 4 2 2 3 2 3 5 4 3 3 3 5 6 4 6 3 3 4 1 2 3 3 2 3 4 9 11 6 3 2 3 5 5 5 3 2 1 3 4 2 5 8 3 3 3 4 10 8 11 16 17 17 17 19 20 16 17 20 16 14 15 16
18 16 17 16 14 11 10 9 10 13 15 18 15 7 4 7 6 5 7 8 2 2 3 3 3 2 2 2 4 3 2 3 5 5 2 3 3 5 6 7 6 2 2 3 1 3 4 7 5 6 2 10 13 6 5 6 5 5 4 5 5 5 4 4 4 4 7 7 4 1 2 4 4 3 9 14 14 18 22 24 23 21 22 21 19 19 19 21
19 18 19 18 16 15 11 9 11 12 16 18 11 3 7 10 3 3 7 6 1 1 2 3 4 3 3 3 3 3 4 4 3 5 4 5 5 5 5 8 9 6 5 4 2 3 4 9 5 1 1 8 8 3 5 8 4 2 3 4 3 5 5 2 3 4 1 5 5 3 4 6 4 2 5 5 5 11 19 20 18 23 29 25 23 25 25 25
19 21 22 21 20 17 11 10 12 13 16 15 6 6 11 8 3 4 5 5 4 4 4 1 3 4 4 3 3 4 3 2 1 3 4 4 4 6 4 5 11 12 9 7 3 3 3 6 3 3 2 3 2 1 2 3 3 3 2 3 4 4 5 2 3 1 4 3 7 2 6 11 6 4 5 4 5 9 11 10 13 24 29 23 23 27 27 26
22 24 26 26 24 18 13 12 12 14 16 11 6 10 7 3 5 7 4 5 5 6 7 4 3 5 5 3 4 5 3 1 2 3 4 3 4 7 6 5 9 17 18 12 4 4 4 4 3 2 0 1 1 2 2 2 3 5 4 5 3 2 4 3 2 3 2 5 6 4 11 17 12 7 1 4 6 12 10 7 10 18 20 18 23 29 29 28
26 28 30 31 27 20 16 14 13 15 13 7 11 14 5 3 6 5 6 7 4 5 7 7 6 6 7 5 4 5 5 4 4 3 4 4 5 6 8 5 8 17 24 17 4 2 3 3 4 1 1 1 1 1 1 2 2 4 4 2 3 3 2 2 2 3 4 4 5 10 16 18 14 9 4 4 10 12 10 9 10 13 14 17 26 30 30 29
28 25 27 31 27 22 19 17 17 17 10 5 12 14 4 3 5 7 13 11 4 5 6 7 7 3 4 7 4 4 7 7 7 5 4 4 5 5 9 7 7 13 20 16 6 2 3 3 4 1 1 0 2 2 5 3 1 3 0 1 2 2 4 3 3 3 3 3 5 12 15 16 10 6 6 9 12 11 8 9 10 12 16 21 27 29 28 27
29 20 17 23 21 19 22 22 22 17 8 7 11 8 2 2 7 15 22 16 5 5 6 5 6 5 4 6 4 4 6 7 7 5 4 5 5 4 8 8 5 5 8 9 6 1 3 3 5 1 2 1 4 6 9 10 7 4 3 3 2 1 2 1 1 2 3 4 4 7 12 16 7 7 7 9 9 10 10 10 9 11 18 25 27 27 27 27
30 14 11 15 15 23 31 24 17 12 5 8 9 5 3 5 7 12 21 20 11 7 6 5 7 8 6 6 4 4 5 5 6 6 4 6 6 5 10 14 10 8 6 3 4 4 3 3 5 3 2 6 8 5 3 6 9 9 8 8 9 6 4 2 5 3 3 4 5 4 10 18 7 7 5 6 6 7 10 11 9 11 20 26 26 27 27 27
27 11 11 16 18 33 38 19 11 11 6 9 9 5 6 8 5 6 13 18 12 5 4 4 6 8 6 5 4 5 6 5 7 7 5 6 9 8 10 15 16 15 10 4 3 4 3 3 4 6 7 7 5 2 1 1 4 5 5 7 7 7 7 7 9 5 2 2 3 3 6 18 8 7 4 5 7 8 12 13 10 13 22 25 25 27 27 23
26 16 13 17 26 42 35 10 8 10 6 11 12 8 6 4 2 3 8 11 8 5 6 5 5 7 7 4 4 5 7 6 6 7 4 5 10 12 11 16 19 13 6 2 1 2 3 2 4 6 6 3 3 4 3 3 3 3 5 5 6 7 9 9 6 3 3 5 3 4 6 19 10 5 4 4 5 8 12 15 14 14 21 24 24 24 22 19
27 21 16 21 34 44 29 7 8 10 8 12 12 11 9 5 5 7 5 7 8 6 6 7 5 6 7 4 5 7 7 7 6 6 7 7 7 9 14 22 21 10 6 7 7 9 7 3 5 5 5 5 4 2 3 4 1 4 5 5 8 10 9 3 1 1 4 7 8 5 10 18 10 2 3 3 5 6 9 15 18 16 18 21 21 20 20 20
19 13 15 26 43 44 27 13 9 8 12 15 12 13 12 8 10 15 10 9 10 6 3 6 5 5 6 4 4 7 7 8 8 5 7 9 3 0 11 25 25 15 12 12 11 14 9 4 7 8 8 10 11 9 4 1 3 3 2 6 11 14 13 7 3 6 9 6 10 7 15 18 14 11 10 10 8 7 9 12 15 17 18 20 20 21 23 25
12 7 7 18 37 41 33 25 13 4 9 14 9 9 13 11 9 13 13 12 14 10 4 3 3 3 5 6 6 10 10 10 9 6 6 7 3 3 5 21 23 13 7 8 12 12 4 3 11 14 15 15 14 13 5 6 5 5 6 9 12 15 16 11 7 11 9 4 6 15 23 20 18 21 24 23 17 14 13 11 11 15 20 22 25 29 30 30
10 8 8 10 19 24 24 25 18 7 6 11 7 6 15 17 8 7 12 13 16 16 8 4 6 6 7 10 11 12 12 10 9 11 14 10 5 3 1 8 11 5 3 2 9 9 2 4 13 17 19 17 16 18 8 8 7 9 9 12 13 14 15 14 16 17 7 5 10 22 22 17 17 23 29 30 25 20 16 14 13 19 24 26 28 30 29 28
12 10 18 20 13 8 13 21 22 16 12 12 10 7 12 16 11 10 12 8 9 15 10 6 11 16 16 15 12 10 11 11 11 15 18 13 5 1 2 2 4 3 1 1 2 4 3 7 12 14 18 16 17 19 10 7 8 8 8 13 15 16 17 19 24 22 12 11 18 20 16 15 19 26 30 29 25 17 16 21 24 25 26 25 25 25 25 26
18 9 16 24 17 10 19 29 26 20 18 14 11 10 13 17 18 15 9 3 4 12 14 12 16 23 23 18 13 11 12 13 14 15 13 9 5 2 2 4 2 2 3 1 2 3 3 7 12 13 16 16 17 20 13 8 11 13 11 13 16 18 18 20 26 26 23 23 21 17 16 17 22 27 27 27 26 20 20 30 34 31 30 29 28 27 26 28
24 15 12 17 17 15 21 25 19 13 16 16 12 12 15 18 20 16 9 10 10 8 13 20 23 19 16 16 14 15 17 18 18 15 8 6 6 4 4 6 2 1 2 2 2 3 3 7 9 9 10 14 18 20 13 9 13 17 15 17 23 21 15 18 25 24 21 20 18 17 16 18 24 27 22 25 29 24 23 30 35 37 37 33 32 31 30 32
32 33 26 15 9 12 16 14 11 9 10 12 13 14 15 18 22 19 12 16 18 11 12 21 25 13 7 11 16 21 26 25 22 19 10 6 6 6 5 5 5 4 3 3 2 2 3 4 4 5 7 12 16 16 9 8 9 12 16 25 30 23 16 20 23 18 14 14 16 16 15 17 22 20 15 18 20 17 19 23 28 35 36 31 30 34 35 34
26 32 35 24 8 10 13 9 9 10 8 10 16 17 17 19 21 18 12 13 22 25 21 19 18 11 5 10 21 31 35 34 31 32 25 12 7 10 10 9 8 7 5 4 2 3 4 4 4 6 8 12 15 12 4 5 4 10 15 21 23 21 21 23 21 16 14 12 12 14 15 18 19 15 15 17 14 13 18 24 28 32 31 29 32 36 37 36
Wind_Direction
1 2 2 1 2 2 1 360 359 357 357 360 3 5 6 11 19 21 19 21 24 21 15 13 6 335 265 181 160 161 163 167 173 169 148 123 105 98 86 66 56 44 37 33 35 37 32 9 323 281 191 157 130 113 95 48 59 108 98 94 143 176 195 189 184 195 170 225 204 182 181 172 184 192 187 193 204 205 198 202 208 209 216 223 220 227 219 201
352 355 355 355 355 354 354 352 351 349 347 347 348 350 351 353 358 7 10 8 10 15 13 7 2 345 295 256 226 200 189 201 215 208 186 164 142 120 102 79 64 50 44 35 33 28 22 15 343 194 171 154 124 121 118 43 55 81 107 86 233 194 205 196 185 196 187 330 196 181 185 188 204 189 185 200 209 194 195 210 215 219 222 225 226 229 219 202
346 349 349 350 352 353 352 350 348 345 342 341 340 339 340 340 341 346 354 355 357 3 7 5 355 347 322 274 246 236 236 251 250 229 199 183 178 152 128 100 73 53 42 33 34 23 13 17 58 145 155 139 116 125 105 40 70 76 100 94 245 214 234 213 203 212 214 286 181 176 190 202 219 191 187 204 201 189 210 216 214 223 227 225 224 225 215 203
337 341 344 346 349 351 351 350 348 345 342 338 336 335 334 334 332 332 338 342 344 351 359 1 352 342 327 293 263 249 257 275 258 229 208 196 188 173 154 130 84 52 34 25 29 20 10 14 63 135 137 120 101 130 83 23 74 201 116 163 237 199 232 219 218 223 217 259 192 172 179 209 220 198 195 193 173 218 230 227 225 233 233 223 219 217 210 205
328 331 337 340 343 346 348 349 348 346 343 339 336 333 331 331 329 326 328 332 333 340 349 353 350 336 322 301 281 256 264 311 245 211 206 204 196 191 173 164 143 44 22 16 19 15 10 18 70 128 116 102 70 102 25 17 101 107 154 239 240 171 207 247 213 205 211 233 195 169 170 212 207 201 208 197 197 238 240 243 242 243 242 231 225 218 209 206
318 322 327 332 338 341 342 343 343 343 343 340 336 331 330 328 327 324 324 326 325 330 337 342 343 332 318 295 284 252 228 281 214 201 210 211 207 207 193 191 192 24 358 5 8 5 9 22 57 120 99 79 61 97 38 357 157 157 278 265 238 191 223 284 209 206 216 214 198 191 205 214 194 217 225 211 224 242 247 256 252 247 243 237 231 221 213 209
310 314 319 325 331 334 336 337 336 337 339 338 336 331 328 326 326 323 321 323 321 323 327 330 333 327 312 291 282 253 242 256 246 228 231 222 218 216 206 210 211 236 329 352 346 352 4 20 55 105 101 83 149 145 52 23 172 141 225 253 224 209 237 265 228 222 225 220 224 220 220 220 206 227 239 227 240 246 246 252 251 248 239 230 225 220 219 217
304 308 313 318 323 327 329 330 330 332 333 334 334 330 327 325 324 322 321 322 319 320 319 320 325 323 312 293 278 264 258 262 253 240 236 224 223 222 219 225 223 240 288 330 323 342 359 15 55 103 112 100 160 166 70 92 141 103 164 224 211 220 241 251 240 233 235 236 238 232 230 236 230 238 255 249 253 252 245 247 247 248 237 226 222 220 220 217
298 302 307 312 315 318 320 323 325 325 327 330 331 329 326 323 323 322 322 322 319 318 316 316 318 316 308 293 280 274 266 260 250 239 230 225 228 228 231 237 234 240 258 296 307 332 353 11 37 98 155 143 149 152 110 129 257 151 168 205 209 233 244 243 242 237 241 244 236 231 243 251 249 257 268 260 260 257 248 246 245 245 240 230 223 221 220 218
290 295 300 306 308 311 313 315 318 319 323 325 327 327 323 322 321 321 322 322 319 315 313 311 312 309 301 288 258 257 277 275 256 242 231 231 232 231 234 239 243 242 246 275 290 312 342 0 22 100 142 145 143 144 125 115 245 197 192 214 217 239 251 247 246 244 246 250 236 224 246 261 246 209 264 263 262 252 244 241 242 241 239 234 226 223 221 220
285 289 294 299 303 305 308 310 312 315 318 321 324 324 321 319 318 319 321 321 317 315 311 306 306 300 296 279 231 234 282 283 264 249 237 237 236 235 238 239 245 241 239 262 273 277 321 343 4 102 151 157 140 143 149 135 197 250 264 242 246 262 255 244 250 248 240 254 241 224 250 267 167 163 246 254 260 252 242 238 238 237 236 233 227 223 220 221
281 284 288 292 296 300 304 306 308 311 314 319 322 322 321 317 315 317 318 318 315 313 308 303 298 294 295 276 254 261 283 278 265 260 244 239 239 239 240 238 242 243 240 255 264 259 291 316 312 316 184 169 143 119 139 149 165 168 67 269 295 344 302 235 254 243 207 240 235 198 271 258 187 226 244 249 255 250 240 236 236 234 233 230 225 222 220 221
276 280 284 287 290 294 297 301 304 307 309 314 317 320 320 316 315 316 315 315 313 311 307 300 292 291 291 277 272 276 277 273 265 258 245 239 240 239 237 235 238 242 241 252 264 255 257 283 278 251 153 153 154 137 142 111 120 164 78 57 317 355 338 227 242 207 191 226 191 144 282 259 209 233 244 249 248 239 230 232 233 232 231 228 224 221 220 220
272 275 278 282 285 288 291 296 298 301 304 308 311 315 316 315 315 316 314 313 311 308 302 296 293 291 283 274 280 281 273 272 262 251 244 239 239 237 235 233 235 239 243 255 269 258 251 269 242 200 132 117 140 142 97 33 67 147 62 46 17 351 292 272 267 148 169 227 183 148 279 268 246 241 245 245 241 234 228 233 233 231 230 228 224 221 221 221
267 271 274 277 280 283 287 291 293 296 299 302 305 308 311 311 312 314 313 311 308 303 297 294 293 289 282 277 277 278 273 265 256 250 243 239 239 237 234 234 234 240 250 258 269 263 253 237 198 168 121 132 129 120 9 0 17 31 354 309 339 191 271 296 267 182 205 247 174 159 254 272 275 262 249 240 233 230 231 236 235 233 232 229 226 223 223 224
265 267 269 272 276 279 283 286 289 291 293 297 301 303 307 308 309 311 309 306 301 295 294 291 285 280 281 281 273 271 268 257 253 250 244 241 238 235 235 238 238 245 255 262 267 249 241 222 164 136 130 163 120 90 35 9 344 7 53 256 268 236 281 310 283 207 222 217 181 204 240 278 280 266 237 226 227 228 230 236 236 236 236 231 228 225 224 224
264 264 266 269 271 275 278 282 285 287 290 293 296 298 303 304 305 307 304 299 292 290 292 282 275 277 269 267 264 263 266 258 252 247 243 240 237 236 236 238 239 249 256 258 256 227 222 201 155 159 70 82 84 89 39 335 301 327 16 252 251 235 262 295 299 265 193 171 218 226 233 255 264 271 250 231 235 233 231 238 239 239 239 234 230 227 225 225
267 266 266 266 268 271 273 277 281 284 287 291 296 299 302 304 305 304 297 290 285 288 289 265 249 288 266 251 248 259 272 268 257 248 243 239 237 235 235 238 243 249 251 245 235 205 212 174 131 166 21 28 56 104 174 244 214 234 242 254 274 255 243 252 265 284 118 189 239 215 238 254 263 272 265 252 244 239 241 244 244 244 242 237 231 228 228 227
268 268 268 268 268 269 271 274 277 280 284 288 294 298 303 306 304 298 288 280 275 271 272 234 201 203 254 257 266 274 278 272 261 252 244 240 237 236 236 238 242 236 208 193 215 179 176 88 101 223 236 204 199 170 200 213 178 191 210 200 235 254 258 239 237 258 141 251 257 230 240 256 262 270 269 261 244 242 250 250 246 246 243 238 233 231 231 230
267 268 269 269 269 269 271 274 275 278 283 287 293 299 306 311 308 299 283 273 267 264 267 253 235 246 262 273 276 273 269 264 261 253 244 239 233 235 237 231 230 224 193 173 191 140 121 202 224 222 214 207 212 198 187 175 144 141 152 183 223 236 264 255 240 281 109 215 261 244 243 259 260 263 269 269 253 242 251 247 241 244 242 238 234 234 235 235
269 268 268 269 268 269 270 271 273 276 280 286 293 302 309 307 297 299 295 286 279 272 268 264 258 258 264 269 270 267 260 257 257 246 241 235 221 221 224 210 186 204 233 146 135 100 108 208 237 226 208 199 198 175 138 120 115 115 153 201 250 228 255 267 262 312 359 175 266 277 272 266 261 260 266 269 258 244 247 242 240 243 241 239 236 239 240 239
277 274 272 270 268 268 268 270 271 272 276 281 289 297 300 293 284 290 298 293 284 277 268 265 261 260 263 262 261 258 248 247 250 239 233 225 213 211 200 170 154 194 246 112 124 64 114 237 247 215 159 117 91 124 124 120 119 115 140 173 264 236 267 294 338 347 14 185 270 298 288 272 267 263 259 254 247 253 254 246 245 246 241 239 239 241 241 239
283 282 279 276 274 272 269 268 268 270 273 276 282 287 287 287 287 290 292 283 285 284 272 263 261 259 259 256 253 247 233 233 244 237 228 217 208 206 189 157 150 171 175 174 173 161 199 254 253 171 143 118 84 104 112 106 123 153 149 175 252 240 266 286 305 322 225 201 279 291 279 269 266 263 256 249 246 257 264 259 256 252 244 243 245 246 244 240
286 287 286 284 285 284 275 268 266 268 270 271 276 279 280 283 282 293 294 274 279 283 269 259 255 253 251 249 246 236 227 231 240 233 221 210 194 190 194 167 143 177 213 195 178 187 227 244 154 127 136 127 119 143 141 148 223 240 196 205 239 234 222 236 282 322 296 325 331 311 291 270 257 254 256 260 253 260 265 261 257 252 246 247 249 249 247 245
289 291 291 289 291 294 284 271 265 264 266 268 273 273 275 278 283 306 310 291 271 274 268 253 246 247 243 240 235 221 222 235 237 229 212 202 189 173 175 170 166 212 208 168 158 213 249 216 141 127 111 121 138 193 192 177 206 291 230 216 225 230 233 245 340 358 360 336 327 360 317 284 282 261 260 285 317 271 266 256 253 251 244 241 242 244 246 246
291 292 292 291 293 295 287 272 262 261 259 258 258 253 260 267 291 320 326 336 276 254 230 218 219 227 223 219 208 191 209 253 233 220 203 197 194 179 150 165 174 208 178 145 152 224 252 167 138 141 154 157 176 234 223 173 153 292 247 209 208 207 205 204 47 16 267 261 288 48 315 274 283 253 256 264 280 277 278 270 265 257 244 237 241 244 245 246
294 295 293 291 293 294 286 262 255 252 235 237 237 223 237 246 275 350 359 325 268 210 167 181 183 188 200 192 171 160 196 229 191 201 194 190 194 188 187 185 151 204 175 136 186 237 134 111 94 119 139 159 196 242 218 158 142 239 242 130 140 150 164 177 136 169 235 287 314 154 192 274 274 238 246 248 255 275 273 268 273 267 251 242 246 250 249 250
298 298 297 294 293 292 284 261 246 229 210 213 207 203 206 179 160 56 45 277 263 148 143 169 165 183 191 175 173 172 220 159 141 192 188 183 189 187 216 215 173 188 186 144 205 258 115 151 175 148 135 176 202 237 193 160 153 239 197 114 120 133 141 141 125 179 286 15 299 235 161 276 275 240 255 260 232 259 260 251 259 263 256 249 251 254 254 254
298 301 302 296 292 289 279 257 230 213 209 195 170 181 174 154 140 72 97 250 261 113 140 165 163 182 164 156 189 215 238 148 139 178 174 179 190 181 233 216 164 145 194 168 218 264 76 168 189 152 153 204 205 301 181 174 186 175 138 95 75 72 77 80 110 137 36 327 261 236 164 227 274 224 116 74 196 235 251 248 250 257 257 253 252 252 250 252
295 304 304 293 292 285 271 247 223 214 202 186 177 168 155 146 118 95 231 243 254 121 121 155 175 168 143 139 219 236 209 234 121 142 153 173 187 180 125 164 121 116 309 340 268 253 63 92 181 168 174 171 137 75 48 116 140 133 113 70 53 42 51 50 56 92 43 266 258 230 178 190 272 246 153 177 198 206 220 240 252 255 255 251 247 242 244 251
290 302 303 291 287 274 262 241 220 210 194 184 176 162 152 127 98 194 229 234 292 210 118 163 193 143 154 162 214 205 174 246 163 153 159 154 169 165 121 138 108 88 350 322 288 293 9 125 238 208 165 129 105 70 36 58 112 117 92 74 46 344 10 22 356 54 257 256 257 225 175 185 244 246 188 229 251 218 204 218 235 240 244 242 237 237 246 256
284 294 297 286 278 268 252 237 217 201 192 180 169 160 141 113 241 214 220 53 246 218 166 177 196 162 184 195 194 180 157 207 186 168 169 156 167 186 188 190 165 106 308 250 259 327 288 215 211 171 176 163 126 80 36 14 58 103 94 90 56 326 349 347 303 129 228 256 246 155 147 219 246 245 234 251 262 241 219 218 221 220 231 234 232 240 253 262
277 285 288 278 274 266 242 239 221 199 190 175 166 150 114 215 239 185 164 211 223 220 139 116 108 135 150 150 237 196 156 211 188 172 178 146 171 224 248 230 168 163 254 208 225 330 292 288 150 153 224 191 170 161 192 228 174 160 143 126 136 143 69 282 270 282 271 270 265 149 151 252 268 258 221 223 233 229 224 227 226 223 229 235 241 252 263 268
273 279 282 271 262 253 244 250 226 197 186 175 165 130 118 228 236 134 180 219 244 17 44 64 73 82 131 187 242 199 176 235 172 154 189 140 163 233 242 229 199 152 105 153 181 175 242 284 198 173 209 178 181 195 163 137 147 177 157 141 155 152 168 226 235 252 276 288 289 223 186 227 260 266 209 215 234 233 231 232 231 234 239 245 254 259 264 267
270 273 275 266 253 246 247 245 219 194 184 177 166 145 205 223 216 142 200 209 221 15 24 24 85 105 267 277 287 241 210 241 151 137 188 180 190 211 195 203 196 159 129 174 224 163 221 269 238 148 62 157 175 202 116 113 133 196 127 123 171 177 171 208 218 198 242 315 288 229 220 231 222 245 229 222 245 238 236 235 233 240 246 249 256 257 260 264
262 264 265 259 248 242 244 231 208 195 188 177 168 218 223 226 175 179 197 167 176 152 107 354 99 128 263 278 268 250 209 236 155 144 214 218 225 219 197 209 190 180 181 180 193 175 201 273 311 38 23 129 146 205 121 128 166 161 148 172 203 182 139 146 267 36 69 284 272 250 260 273 282 267 238 195 204 231 236 228 225 238 244 247 250 252 255 258
247 253 255 253 245 236 232 225 207 198 192 179 203 225 222 225 186 182 168 144 156 139 138 219 204 169 219 241 228 215 175 233 194 168 217 234 241 204 195 242 197 190 202 197 206 219 187 269 304 80 198 289 26 47 38 14 122 129 191 208 180 123 94 112 252 351 25 249 271 289 271 276 281 274 282 114 197 233 233 217 228 240 243 245 246 248 251 253
240 246 250 250 246 233 220 215 206 201 189 175 229 235 216 197 208 175 149 149 142 147 167 214 211 177 196 216 227 188 171 195 180 177 212 221 246 189 164 213 202 197 210 208 230 274 168 243 286 125 197 258 28 85 71 348 73 125 197 204 114 144 159 116 169 228 249 237 273 282 275 274 265 253 261 207 210 226 227 220 234 242 241 241 243 246 247 248
236 236 246 249 244 231 215 199 192 196 187 182 229 235 209 189 228 198 182 178 159 167 190 220 219 206 192 188 187 175 184 194 175 182 211 205 237 196 162 193 207 205 210 200 202 253 149 209 249 234 253 316 51 193 191 204 36 59 264 352 48 165 172 169 169 184 211 203 260 279 280 276 254 195 203 222 213 212 214 216 226 234 235 235 238 242 243 246
225 225 247 248 236 216 200 186 182 185 189 215 226 226 175 201 233 217 207 202 186 186 205 217 207 222 218 192 191 183 194 206 183 186 224 206 230 239 190 189 179 178 193 185 198 215 99 207 228 211 339 263 192 204 200 190 174 161 187 186 214 189 123 210 235 125 147 181 231 262 271 273 258 144 175 213 206 201 197 203 217 224 231 233 236 241 245 252
214 221 242 223 203 187 179 174 182 188 198 234 235 230 213 222 224 219 217 216 219 217 206 193 198 210 206 198 212 185 180 207 192 194 232 215 227 249 205 191 167 134 123 134 214 208 148 203 212 177 231 236 226 220 202 190 175 174 190 190 194 185 134 202 249 216 159 193 204 201 258 268 258 113 158 198 184 200 196 200 215 215 224 234 240 247 254 256
202 216 226 196 179 175 171 170 200 199 209 228 232 246 230 227 227 214 213 215 222 237 226 219 215 212 205 200 200 175 174 202 201 201 234 227 221 228 204 187 166 145 136 139 207 191 132 144 205 223 232 236 255 320 16 218 149 152 206 198 182 175 156 189 228 226 163 210 209 111 265 266 260 99 131 180 170 202 202 198 210 218 226 237 247 254 256 251
198 209 210 194 188 178 169 177 217 194 223 233 234 259 248 235 248 207 202 205 208 211 222 229 203 209 228 213 173 180 193 209 203 190 211 239 229 229 208 173 158 146 135 128 167 137 111 136 205 239 263 292 360 18 7 354 90 147 237 197 169 198 199 204 220 188 171 212 189 97 257 263 271 90 131 200 194 213 212 208 218 228 234 242 249 250 246 237
209 209 191 186 189 180 173 196 209 196 228 228 230 249 249 252 244 223 203 198 201 194 214 230 205 210 234 192 180 209 200 207 222 196 203 234 239 227 197 171 161 163 186 186 177 169 170 190 188 214 270 280 288 317 345 338 262 214 233 179 188 213 207 208 22 109 239 211 160 160 248 258 269 87 124 211 211 229 235 227 231 238 241 245 247 242 236 237
213 208 185 185 187 187 193 212 203 201 217 218 228 234 237 254 243 230 223 212 216 203 197 238 224 208 217 180 208 234 207 214 238 219 213 234 260 255 182 178 176 187 210 204 179 169 176 192 181 194 229 234 242 246 234 222 206 222 224 177 195 207 197 194 211 222 235 190 140 190 247 256 270 281 277 260 230 233 247 235 235 242 245 248 250 247 245 248
198 189 176 183 191 199 215 224 224 227 209 213 227 225 224 239 247 231 218 217 225 217 205 251 214 189 211 196 221 241 229 228 235 233 238 236 249 357 186 188 190 198 221 203 171 162 163 207 196 208 223 224 239 249 206 127 152 205 209 194 199 209 202 198 225 232 221 143 163 227 241 255 275 281 277 270 260 259 263 253 240 247 253 256 259 259 257 255
192 194 182 174 196 211 226 229 229 234 204 197 195 201 219 226 240 228 208 210 216 207 211 251 206 202 218 203 216 236 230 228 231 237 246 240 232 317 348 198 213 244 313 198 176 160 125 230 214 223 233 231 244 251 214 146 194 211 200 206 211 209 200 201 226 229 184 126 232 239 241 255 269 269 269 271 271 271 274 275 270 269 270 268 267 265 259 256
208 211 200 193 194 197 212 219 218 216 213 203 197 210 222 222 228 223 210 211 206 194 199 232 216 217 220 207 211 230 225 227 231 233 241 243 234 330 359 222 231 248 320 359 217 169 151 231 227 232 242 240 250 254 228 176 227 225 195 214 221 210 199 207 227 230 202 208 240 245 246 251 255 257 261 265 271 276 283 286 284 280 277 274 270 265 257 257
220 229 211 206 207 196 202 211 213 211 212 211 209 216 221 222 224 221 199 157 211 201 199 220 225 221 220 215 213 224 226 228 234 234 236 235 207 149 240 245 227 195 182 139 253 205 169 232 235 236 248 249 249 253 238 205 243 250 230 231 236 225 208 212 231 234 225 231 246 255 258 256 255 256 259 266 276 287 292 288 285 281 276 274 273 268 262 261
226 231 218 209 217 219 213 214 214 211 211 212 216 220 223 227 228 227 200 182 209 207 194 220 235 225 212 215 217 228 233 232 240 243 220 191 197 184 209 226 192 126 201 185 237 229 199 235 240 240 256 253 249 255 246 212 236 253 255 254 251 242 222 222 237 240 236 244 254 257 260 260 256 258 264 274 282 289 288 282 279 278 276 276 276 274 269 264
239 238 235 232 229 217 218 218 209 212 214 208 214 220 224 229 228 230 226 210 217 220 192 215 235 233 197 206 217 229 233 230 239 243 217 170 191 194 196 209 174 147 206 211 193 206 213 238 245 243 254 250 252 261 249 206 228 251 253 252 252 249 238 234 240 241 236 245 255 256 254 252 255 262 269 271 273 275 272 270 270 272 274 274 273 273 270 266
254 249 244 244 235 192 207 222 210 214 220 207 213 219 221 227 227 227 237 226 223 229 221 214 226 229 197 207 220 229 233 233 239 244 241 234 214 199 204 211 190 173 187 190 171 185 194 207 221 228 244 253 256 258 218 152 217 248 244 246 251 253 249 246 251 251 234 227 242 250 250 254 262 269 268 265 263 257 260 263 265 268 272 272 269 268 269 269